TimeMDT,TemperatureF,Dew PointF,Humidity,Sea Level PressureIn,VisibilityMPH,Wind Direction,Wind SpeedMPH,Gust SpeedMPH,PrecipitationIn,Events,Conditions,WindDirDegrees,DateUTC
12:51 AM,54.0,30.0,40,30.12,10.0,NNW,6.9,-,N/A,,Scattered Clouds,340,2012-09-17 06:51:00
1:51 AM,53.1,32.0,45,30.11,10.0,North,5.8,-,N/A,,Clear,360,2012-09-17 07:51:00
2:51 AM,44.1,32.0,63,30.14,10.0,Calm,Calm,-,N/A,,Clear,0,2012-09-17 08:51:00
3:51 AM,41.0,30.9,67,30.15,10.0,Calm,Calm,-,N/A,,Clear,0,2012-09-17 09:51:00
4:51 AM,42.1,30.9,65,30.15,10.0,Calm,Calm,-,N/A,,Clear,0,2012-09-17 10:51:00
5:51 AM,37.9,28.9,70,30.17,10.0,Calm,Calm,-,N/A,,Clear,0,2012-09-17 11:51:00
6:51 AM,36.0,28.0,73,30.18,10.0,Calm,Calm,-,N/A,,Clear,0,2012-09-17 12:51:00
7:51 AM,36.0,28.0,73,30.20,10.0,Calm,Calm,-,N/A,,Clear,0,2012-09-17 13:51:00
8:51 AM,39.9,30.9,70,30.21,10.0,Calm,Calm,-,N/A,,Clear,0,2012-09-17 14:51:00
9:51 AM,48.9,33.1,54,30.20,10.0,Calm,Calm,-,N/A,,Clear,0,2012-09-17 15:51:00
10:51 AM,55.9,34.0,44,30.18,10.0,South,4.6,-,N/A,,Clear,180,2012-09-17 16:51:00
11:51 AM,61.0,30.0,31,30.17,10.0,Calm,Calm,-,N/A,,Clear,0,2012-09-17 17:51:00
12:51 PM,66.9,21.9,18,30.14,10.0,Variable,3.5,-,N/A,,Clear,0,2012-09-17 18:51:00
1:51 PM,72.0,24.1,17,30.12,10.0,Variable,4.6,-,N/A,,Clear,0,2012-09-17 19:51:00
2:51 PM,71.1,19.9,14,30.13,10.0,Calm,Calm,-,N/A,,Clear,0,2012-09-17 20:51:00
4:12 PM,73.4,23.0,15,30.19,4.0,West,10.4,17.3,N/A,,Haze,280,2012-09-17 22:12:00
4:20 PM,73.4,23.0,15,30.19,5.0,WSW,11.5,-,N/A,,Haze,250,2012-09-17 22:20:00
4:51 PM,73.9,24.1,16,30.10,5.0,WNW,10.4,-,N/A,,Haze,300,2012-09-17 22:51:00
5:51 PM,73.0,24.1,16,30.12,6.0,WNW,6.9,-,N/A,,Haze,300,2012-09-17 23:51:00
6:51 PM,71.1,24.1,17,30.12,7.0,WNW,6.9,-,N/A,,Mostly Cloudy,290,2012-09-18 00:51:00
7:51 PM,68.0,30.0,24,30.14,6.0,NNW,5.8,-,N/A,,Haze,340,2012-09-18 01:51:00
8:51 PM,63.0,27.0,26,30.14,10.0,NNE,6.9,-,N/A,,Clear,20,2012-09-18 02:51:00
9:51 PM,60.1,28.0,30,30.14,8.0,NNW,6.9,-,N/A,,Clear,340,2012-09-18 03:51:00
10:51 PM,54.0,28.0,37,30.15,6.0,NE,3.5,-,N/A,,Haze,40,2012-09-18 04:51:00
11:28 PM,51.8,30.2,44,30.22,6.0,Calm,Calm,-,N/A,,Haze,0,2012-09-18 05:28:00
11:51 PM,52.0,32.0,47,30.14,7.0,NNW,3.5,-,N/A,,Overcast,340,2012-09-18 05:51:00